User: anonymous   Login
Location: Unspecified
(0.0000°N, 0.0000°E)
Time: 08:33:30
(UTC+00:00)
Language:

deb r/b Ablestar - Orbit

View from above orbital plane
View from above orbital plane
View from above satellite
View from above satellite

Ground track
Ground track

The orbit data is extracted from the following two-line orbital elements,

1 00335U 61015DM  15062.55077955  .00001141  00000-0  61410-3 0  9993
2 00335 066.8424 207.0774 0046029 330.1715 029.6754 14.15869955743001
Epoch (UTC): 03 March 2015 13:13:07
Eccentricity: 0.0046029
inclination: 66.8424°
perigee height: 806 km
apogee height: 872 km
right ascension of ascending node: 207.0774°
argument of perigee: 330.1715°
revolutions per day: 14.15869955
mean anomaly at epoch: 29.6754°
orbit number at epoch: 74300

The dashed part of the orbit path shows where the satellite is in the earth's shadow,  

DLR